Time,TemperatureF,DewpointF,PressureIn,WindDirection,WindDirectionDegrees,WindSpeedMPH,WindSpeedGustMPH,Humidity,HourlyPrecipIn,Conditions,Clouds,dailyrainin,SoftwareType,DateUTC
2013-02-18 00:00:00,50.0,18.9,27.33,ESE,113,0.7,2.2,29,0.00,,,0.00,WUHU216HW,2013-02-18 07:00:00,
2013-02-18 00:05:00,50.0,18.9,27.33,ENE,68,1.6,2.0,29,0.00,,,0.00,WUHU216HW,2013-02-18 07:05:00,
2013-02-18 00:10:00,49.9,18.7,27.33,ESE,113,0.7,2.0,29,0.00,,,0.00,WUHU216HW,2013-02-18 07:10:00,
2013-02-18 00:15:00,49.7,18.6,27.33,East,90,0.4,1.8,29,0.00,,,0.00,WUHU216HW,2013-02-18 07:15:00,
2013-02-18 00:20:00,49.5,18.5,27.33,East,90,1.3,1.3,29,0.00,,,0.00,WUHU216HW,2013-02-18 07:20:00,
2013-02-18 00:25:00,49.3,18.3,27.33,East,90,0.0,1.3,29,0.00,,,0.00,WUHU216HW,2013-02-18 07:25:00,
2013-02-18 00:30:00,49.3,19.3,27.33,SSE,158,1.1,1.6,30,0.00,,,0.00,WUHU216HW,2013-02-18 07:30:00,
2013-02-18 00:35:00,49.3,19.3,27.33,SE,135,0.0,1.6,30,0.00,,,0.00,WUHU216HW,2013-02-18 07:35:00,
2013-02-18 00:40:00,49.0,18.9,27.33,ENE,68,0.0,1.1,30,0.00,,,0.00,WUHU216HW,2013-02-18 07:40:00,
2013-02-18 00:45:00,48.4,18.6,27.33,East,90,1.1,1.6,30,0.00,,,0.00,WUHU216HW,2013-02-18 07:45:00,
2013-02-18 00:50:00,47.9,18.0,27.33,East,90,0.2,1.6,30,0.00,,,0.00,WUHU216HW,2013-02-18 07:50:00,
2013-02-18 00:55:00,47.5,18.4,27.33,NNW,338,0.4,1.1,31,0.00,,,0.00,WUHU216HW,2013-02-18 07:55:00,
2013-02-18 01:00:00,47.0,17.9,27.33,ESE,113,0.0,0.7,31,0.00,,,0.00,WUHU216HW,2013-02-18 08:00:00,
2013-02-18 01:05:00,46.6,18.3,27.33,ENE,68,0.7,1.8,32,0.00,,,0.00,WUHU216HW,2013-02-18 08:05:00,
2013-02-18 01:10:00,46.8,18.4,27.33,ENE,68,1.1,1.8,32,0.00,,,0.00,WUHU216HW,2013-02-18 08:10:00,
2013-02-18 01:15:00,46.8,19.7,27.34,ESE,113,0.7,1.8,34,0.00,,,0.00,WUHU216HW,2013-02-18 08:15:00,
2013-02-18 01:20:00,46.8,19.1,27.34,ESE,113,1.6,2.5,33,0.00,,,0.00,WUHU216HW,2013-02-18 08:20:00,
2013-02-18 01:25:00,47.2,19.4,27.34,ESE,113,1.3,2.5,33,0.00,,,0.00,WUHU216HW,2013-02-18 08:25:00,
2013-02-18 01:30:00,47.3,19.5,27.34,ENE,68,1.8,2.2,33,0.00,,,0.00,WUHU216HW,2013-02-18 08:30:00,
2013-02-18 01:35:00,47.3,19.5,27.34,East,90,0.7,2.2,33,0.00,,,0.00,WUHU216HW,2013-02-18 08:35:00,
2013-02-18 01:40:00,47.2,19.4,27.34,ENE,68,1.3,2.5,33,0.00,,,0.00,WUHU216HW,2013-02-18 08:40:00,
2013-02-18 01:45:00,47.0,19.3,27.35,East,90,1.1,2.5,33,0.00,,,0.00,WUHU216HW,2013-02-18 08:45:00,
2013-02-18 01:50:00,46.8,19.1,27.35,East,90,1.3,1.8,33,0.00,,,0.00,WUHU216HW,2013-02-18 08:50:00,
2013-02-18 01:55:00,46.6,18.9,27.35,ESE,113,0.9,1.8,33,0.00,,,0.00,WUHU216HW,2013-02-18 08:55:00,
2013-02-18 02:00:00,46.8,19.1,27.35,ESE,113,0.4,1.8,33,0.00,,,0.00,WUHU216HW,2013-02-18 09:00:00,
2013-02-18 02:05:00,46.6,18.9,27.34,ESE,113,1.6,1.8,33,0.00,,,0.00,WUHU216HW,2013-02-18 09:05:00,
2013-02-18 02:10:00,46.6,19.5,27.34,SE,135,0.4,2.0,34,0.00,,,0.00,WUHU216HW,2013-02-18 09:10:00,
2013-02-18 02:15:00,46.6,18.9,27.34,NNE,23,1.6,2.0,33,0.00,,,0.00,WUHU216HW,2013-02-18 09:15:00,
2013-02-18 02:20:00,46.6,19.5,27.34,ESE,113,2.2,2.2,34,0.00,,,0.00,WUHU216HW,2013-02-18 09:20:00,
2013-02-18 02:25:00,46.4,18.7,27.34,ESE,113,1.1,2.2,33,0.00,,,0.00,WUHU216HW,2013-02-18 09:25:00,
2013-02-18 02:30:00,46.1,18.5,27.34,ESE,113,2.0,2.2,33,0.00,,,0.00,WUHU216HW,2013-02-18 09:30:00,
2013-02-18 02:35:00,46.1,18.5,27.35,NE,45,1.3,2.0,33,0.00,,,0.00,WUHU216HW,2013-02-18 09:35:00,
2013-02-18 02:40:00,45.7,18.1,27.35,East,90,0.4,2.0,33,0.00,,,0.00,WUHU216HW,2013-02-18 09:40:00,
2013-02-18 02:45:00,45.4,17.7,27.35,ESE,113,1.1,1.6,33,0.00,,,0.00,WUHU216HW,2013-02-18 09:45:00,
2013-02-18 02:50:00,45.5,17.9,27.35,ESE,113,0.2,1.8,33,0.00,,,0.00,WUHU216HW,2013-02-18 09:50:00,
2013-02-18 02:55:00,45.4,17.7,27.35,East,90,1.6,2.2,33,0.00,,,0.00,WUHU216HW,2013-02-18 09:55:00,
2013-02-18 03:00:00,45.0,17.5,27.35,ENE,68,1.1,2.2,33,0.00,,,0.00,WUHU216HW,2013-02-18 10:00:00,
2013-02-18 03:05:00,44.8,17.3,27.35,ESE,113,0.4,1.6,33,0.00,,,0.00,WUHU216HW,2013-02-18 10:05:00,
2013-02-18 03:10:00,44.8,18.6,27.35,ESE,113,0.7,1.1,35,0.00,,,0.00,WUHU216HW,2013-02-18 10:10:00,
2013-02-18 03:15:00,44.8,18.6,27.35,ESE,113,1.1,1.3,35,0.00,,,0.00,WUHU216HW,2013-02-18 10:15:00,
2013-02-18 03:20:00,44.8,18.6,27.35,SSE,158,1.8,2.5,35,0.00,,,0.00,WUHU216HW,2013-02-18 10:20:00,
2013-02-18 03:25:00,44.6,19.1,27.35,ESE,113,1.8,2.9,36,0.00,,,0.00,WUHU216HW,2013-02-18 10:25:00,
2013-02-18 03:30:00,44.6,19.1,27.35,ESE,113,1.6,2.9,36,0.00,,,0.00,WUHU216HW,2013-02-18 10:30:00,
2013-02-18 03:35:00,44.8,18.6,27.35,ENE,68,1.8,2.2,35,0.00,,,0.00,WUHU216HW,2013-02-18 10:35:00,
2013-02-18 03:40:00,44.8,18.6,27.35,ESE,113,2.0,2.7,35,0.00,,,0.00,WUHU216HW,2013-02-18 10:40:00,
2013-02-18 03:45:00,45.0,18.8,27.35,SE,135,1.1,2.7,35,0.00,,,0.00,WUHU216HW,2013-02-18 10:45:00,
2013-02-18 03:52:00,45.0,18.8,27.35,ESE,113,2.0,2.7,35,0.00,,,0.00,WUHU216HW,2013-02-18 10:52:00,
2013-02-18 03:57:00,45.0,18.8,27.35,ESE,113,1.1,2.5,35,0.00,,,0.00,WUHU216HW,2013-02-18 10:57:00,
2013-02-18 04:02:00,45.0,18.8,27.35,ESE,113,1.8,2.5,35,0.00,,,0.00,WUHU216HW,2013-02-18 11:02:00,
2013-02-18 04:07:00,45.2,18.9,27.35,ESE,113,0.4,3.4,35,0.00,,,0.00,WUHU216HW,2013-02-18 11:07:00,
2013-02-18 04:13:00,45.2,18.3,27.35,SE,135,1.8,3.4,34,0.00,,,0.00,WUHU216HW,2013-02-18 11:13:00,
2013-02-18 04:18:00,45.2,17.7,27.35,East,90,2.2,3.4,33,0.00,,,0.00,WUHU216HW,2013-02-18 11:18:00,
2013-02-18 04:23:00,45.2,18.3,27.35,ESE,113,1.8,3.4,34,0.00,,,0.00,WUHU216HW,2013-02-18 11:23:00,
2013-02-18 04:28:00,45.2,18.3,27.35,East,90,3.6,3.6,34,0.00,,,0.00,WUHU216HW,2013-02-18 11:28:00,
2013-02-18 04:33:00,45.0,18.1,27.35,ESE,113,1.1,3.6,34,0.00,,,0.00,WUHU216HW,2013-02-18 11:33:00,
2013-02-18 04:38:00,45.0,18.8,27.35,ESE,113,1.3,3.6,35,0.00,,,0.00,WUHU216HW,2013-02-18 11:38:00,
2013-02-18 04:43:00,45.0,18.8,27.36,ENE,68,1.6,2.7,35,0.00,,,0.00,WUHU216HW,2013-02-18 11:43:00,
2013-02-18 04:48:00,44.8,18.6,27.36,East,90,1.1,2.7,35,0.00,,,0.00,WUHU216HW,2013-02-18 11:48:00,
2013-02-18 04:53:00,45.0,18.8,27.36,SE,135,0.4,2.5,35,0.00,,,0.00,WUHU216HW,2013-02-18 11:53:00,
2013-02-18 04:58:00,45.0,18.8,27.35,SE,135,1.8,2.9,35,0.00,,,0.00,WUHU216HW,2013-02-18 11:58:00,
2013-02-18 05:03:00,45.2,18.9,27.36,East,90,2.2,3.4,35,0.00,,,0.00,WUHU216HW,2013-02-18 12:03:00,
2013-02-18 05:08:00,45.2,18.9,27.35,ESE,113,3.1,3.4,35,0.00,,,0.00,WUHU216HW,2013-02-18 12:08:00,
2013-02-18 05:13:00,45.2,18.9,27.36,ESE,113,2.5,3.6,35,0.00,,,0.00,WUHU216HW,2013-02-18 12:13:00,
2013-02-18 05:18:00,45.0,18.8,27.36,East,90,2.5,3.6,35,0.00,,,0.00,WUHU216HW,2013-02-18 12:18:00,
2013-02-18 05:23:00,45.0,18.8,27.36,ESE,113,1.6,3.6,35,0.00,,,0.00,WUHU216HW,2013-02-18 12:23:00,
2013-02-18 05:28:00,45.0,18.8,27.36,NE,45,1.1,2.7,35,0.00,,,0.00,WUHU216HW,2013-02-18 12:28:00,
2013-02-18 05:33:00,45.4,19.1,27.36,ESE,113,1.8,2.9,35,0.00,,,0.00,WUHU216HW,2013-02-18 12:33:00,
2013-02-18 05:38:00,45.2,18.3,27.36,ESE,113,1.1,2.9,34,0.00,,,0.00,WUHU216HW,2013-02-18 12:38:00,
2013-02-18 05:43:00,45.2,18.9,27.36,ESE,113,0.7,1.8,35,0.00,,,0.00,WUHU216HW,2013-02-18 12:43:00,
2013-02-18 05:48:00,45.0,18.8,27.36,ESE,113,1.1,1.8,35,0.00,,,0.00,WUHU216HW,2013-02-18 12:48:00,
2013-02-18 05:53:00,44.6,18.5,27.36,SSE,158,1.6,3.4,35,0.00,,,0.00,WUHU216HW,2013-02-18 12:53:00,
2013-02-18 05:58:00,44.3,18.8,27.37,SSE,158,1.8,3.4,36,0.00,,,0.00,WUHU216HW,2013-02-18 12:58:00,
2013-02-18 06:03:00,43.9,18.5,27.37,ESE,113,1.8,3.4,36,0.00,,,0.00,WUHU216HW,2013-02-18 13:03:00,
2013-02-18 06:08:00,43.6,18.8,27.37,ESE,113,1.6,3.4,37,0.00,,,0.00,WUHU216HW,2013-02-18 13:08:00,
2013-02-18 06:13:00,43.4,18.6,27.37,SE,135,1.1,2.9,37,0.00,,,0.00,WUHU216HW,2013-02-18 13:13:00,
2013-02-18 06:18:00,43.0,18.4,27.37,SE,135,1.1,2.9,37,0.00,,,0.00,WUHU216HW,2013-02-18 13:18:00,
2013-02-18 06:23:00,42.5,18.6,27.37,East,90,2.2,2.5,38,0.00,,,0.00,WUHU216HW,2013-02-18 13:23:00,
2013-02-18 06:28:00,42.1,18.8,27.37,ENE,68,3.1,3.1,39,0.00,,,0.00,WUHU216HW,2013-02-18 13:28:00,
2013-02-18 06:33:00,42.1,18.8,27.37,ENE,68,1.8,3.1,39,0.00,,,0.00,WUHU216HW,2013-02-18 13:33:00,
2013-02-18 06:38:00,41.8,18.6,27.38,ESE,113,2.9,3.1,39,0.00,,,0.00,WUHU216HW,2013-02-18 13:38:00,
2013-02-18 06:43:00,41.4,18.9,27.38,ESE,113,4.0,4.0,40,0.00,,,0.00,WUHU216HW,2013-02-18 13:43:00,
2013-02-18 06:48:00,41.2,18.7,27.38,SE,135,2.5,4.0,40,0.00,,,0.00,WUHU216HW,2013-02-18 13:48:00,
2013-02-18 06:53:00,41.2,19.3,27.38,ENE,68,0.7,4.0,41,0.00,,,0.00,WUHU216HW,2013-02-18 13:53:00,
2013-02-18 06:58:00,41.0,18.5,27.38,ESE,113,3.1,3.4,40,0.00,,,0.00,WUHU216HW,2013-02-18 13:58:00,
2013-02-18 07:03:00,41.0,19.1,27.38,East,90,2.5,4.0,41,0.00,,,0.00,WUHU216HW,2013-02-18 14:03:00,
2013-02-18 07:08:00,40.9,18.9,27.39,ESE,113,1.6,4.0,41,0.00,,,0.00,WUHU216HW,2013-02-18 14:08:00,
2013-02-18 07:13:00,40.7,18.7,27.39,SSE,158,1.1,3.4,41,0.00,,,0.00,WUHU216HW,2013-02-18 14:13:00,
2013-02-18 07:18:00,40.7,18.7,27.40,ESE,113,1.1,3.4,41,0.00,,,0.00,WUHU216HW,2013-02-18 14:18:00,
2013-02-18 07:23:00,40.7,18.7,27.40,SE,135,1.8,2.9,41,0.00,,,0.00,WUHU216HW,2013-02-18 14:23:00,
2013-02-18 07:28:00,40.7,19.3,27.40,ESE,113,2.5,4.0,42,0.00,,,0.00,WUHU216HW,2013-02-18 14:28:00,
2013-02-18 07:33:00,40.5,19.6,27.40,SE,135,2.9,4.0,43,0.00,,,0.00,WUHU216HW,2013-02-18 14:33:00,
2013-02-18 07:38:00,40.7,19.3,27.40,ESE,113,1.1,3.4,42,0.00,,,0.00,WUHU216HW,2013-02-18 14:38:00,
2013-02-18 07:43:00,41.0,19.6,27.40,SE,135,3.8,3.8,42,0.00,,,0.00,WUHU216HW,2013-02-18 14:43:00,
2013-02-18 07:48:00,41.6,19.0,27.40,East,90,2.9,3.8,40,0.00,,,0.00,WUHU216HW,2013-02-18 14:48:00,
2013-02-18 07:53:00,42.3,19.0,27.41,ESE,113,1.3,4.3,39,0.00,,,0.00,WUHU216HW,2013-02-18 14:53:00,
2013-02-18 07:58:00,43.2,18.5,27.40,East,90,3.8,4.3,37,0.00,,,0.00,WUHU216HW,2013-02-18 14:58:00,
2013-02-18 08:03:00,44.3,18.8,27.40,ESE,113,4.0,4.3,36,0.00,,,0.00,WUHU216HW,2013-02-18 15:03:00,
2013-02-18 08:08:00,44.3,18.8,27.41,ESE,113,2.5,6.7,36,0.00,,,0.00,WUHU216HW,2013-02-18 15:08:00,
2013-02-18 08:13:00,44.8,18.6,27.41,ESE,113,2.0,6.7,35,0.00,,,0.00,WUHU216HW,2013-02-18 15:13:00,
2013-02-18 08:18:00,45.4,18.5,27.41,ENE,68,2.9,4.7,34,0.00,,,0.00,WUHU216HW,2013-02-18 15:18:00,
2013-02-18 08:23:00,46.4,19.5,27.41,SE,135,2.5,5.8,34,0.00,,,0.00,WUHU216HW,2013-02-18 15:23:00,
2013-02-18 08:28:00,47.5,19.7,27.42,SE,135,3.4,5.8,33,0.00,,,0.00,WUHU216HW,2013-02-18 15:28:00,
2013-02-18 08:33:00,48.6,20.0,27.42,NE,45,4.5,5.4,32,0.00,,,0.00,WUHU216HW,2013-02-18 15:33:00,
2013-02-18 08:38:00,49.3,19.9,27.42,ENE,68,1.8,5.4,31,0.00,,,0.00,WUHU216HW,2013-02-18 15:38:00,
2013-02-18 08:43:00,50.0,19.8,27.42,ESE,113,1.1,4.7,30,0.00,,,0.00,WUHU216HW,2013-02-18 15:43:00,
2013-02-18 08:48:00,50.8,20.4,27.41,ESE,113,1.6,4.7,30,0.00,,,0.00,WUHU216HW,2013-02-18 15:48:00,
2013-02-18 08:53:00,51.3,20.0,27.41,East,90,2.0,4.0,29,0.00,,,0.00,WUHU216HW,2013-02-18 15:53:00,
2013-02-18 08:58:00,52.2,19.9,27.41,ESE,113,4.3,4.3,28,0.00,,,0.00,WUHU216HW,2013-02-18 15:58:00,
2013-02-18 09:03:00,52.7,19.4,27.42,ESE,113,1.8,4.3,27,0.00,,,0.00,WUHU216HW,2013-02-18 16:03:00,
2013-02-18 09:08:00,53.1,19.7,27.41,SE,135,2.9,4.3,27,0.00,,,0.00,WUHU216HW,2013-02-18 16:08:00,
2013-02-18 09:13:00,53.6,20.2,27.42,SE,135,1.3,3.6,27,0.00,,,0.00,WUHU216HW,2013-02-18 16:13:00,
2013-02-18 09:18:00,54.5,20.0,27.42,SE,135,2.2,4.3,26,0.00,,,0.00,WUHU216HW,2013-02-18 16:18:00,
2013-02-18 09:23:00,54.7,19.2,27.42,ESE,113,3.4,4.3,25,0.00,,,0.00,WUHU216HW,2013-02-18 16:23:00,
2013-02-18 09:28:00,55.1,19.5,27.41,ESE,113,2.9,4.0,25,0.00,,,0.00,WUHU216HW,2013-02-18 16:28:00,
2013-02-18 09:33:00,55.3,19.6,27.41,SSE,158,1.8,4.0,25,0.00,,,0.00,WUHU216HW,2013-02-18 16:33:00,
2013-02-18 09:38:00,55.4,19.8,27.41,SE,135,1.8,3.4,25,0.00,,,0.00,WUHU216HW,2013-02-18 16:38:00,
2013-02-18 09:43:00,55.8,20.1,27.42,SE,135,2.5,3.4,25,0.00,,,0.00,WUHU216HW,2013-02-18 16:43:00,
2013-02-18 09:48:00,56.5,20.7,27.42,SSE,158,2.5,2.9,25,0.00,,,0.00,WUHU216HW,2013-02-18 16:48:00,
2013-02-18 09:53:00,57.2,20.3,27.41,ESE,113,2.5,3.6,24,0.00,,,0.00,WUHU216HW,2013-02-18 16:53:00,
2013-02-18 09:58:00,57.8,20.8,27.41,SE,135,2.5,4.0,24,0.00,,,0.00,WUHU216HW,2013-02-18 16:58:00,
2013-02-18 10:03:00,58.0,21.0,27.42,ESE,113,2.0,4.0,24,0.00,,,0.00,WUHU216HW,2013-02-18 17:03:00,
2013-02-18 10:08:00,58.7,20.6,27.42,SE,135,1.6,3.4,23,0.00,,,0.00,WUHU216HW,2013-02-18 17:08:00,
2013-02-18 10:13:00,59.4,21.3,27.42,SE,135,2.5,3.4,23,0.00,,,0.00,WUHU216HW,2013-02-18 17:13:00,
2013-02-18 10:18:00,60.1,20.9,27.42,ESE,113,1.8,3.6,22,0.00,,,0.00,WUHU216HW,2013-02-18 17:18:00,
2013-02-18 10:23:00,60.5,20.3,27.41,SE,135,0.7,3.6,21,0.00,,,0.00,WUHU216HW,2013-02-18 17:23:00,
2013-02-18 10:28:00,61.2,21.8,27.41,SE,135,0.9,2.9,22,0.00,,,0.00,WUHU216HW,2013-02-18 17:28:00,
2013-02-18 10:33:00,62.3,22.7,27.42,ESE,113,0.9,2.5,22,0.00,,,0.00,WUHU216HW,2013-02-18 17:33:00,
2013-02-18 10:38:00,63.4,22.6,27.41,ESE,113,0.2,2.7,21,0.00,,,0.00,WUHU216HW,2013-02-18 17:38:00,
2013-02-18 10:43:00,64.8,23.8,27.41,ESE,113,1.8,2.7,21,0.00,,,0.00,WUHU216HW,2013-02-18 17:43:00,
2013-02-18 10:48:00,66.2,22.3,27.41,NE,45,0.4,2.5,19,0.00,,,0.00,WUHU216HW,2013-02-18 17:48:00,
2013-02-18 10:53:00,68.2,22.5,27.41,South,180,0.9,3.4,18,0.00,,,0.00,WUHU216HW,2013-02-18 17:53:00,
2013-02-18 10:58:00,69.5,21.9,27.41,SSE,158,1.6,3.4,17,0.00,,,0.00,WUHU216HW,2013-02-18 17:58:00,
2013-02-18 11:03:00,70.2,22.4,27.41,East,90,0.4,3.4,17,0.00,,,0.00,WUHU216HW,2013-02-18 18:03:00,
2013-02-18 11:08:00,71.3,21.7,27.41,East,90,1.8,3.4,16,0.00,,,0.00,WUHU216HW,2013-02-18 18:08:00,
2013-02-18 11:13:00,70.6,21.1,27.41,SW,225,0.9,3.4,16,0.00,,,0.00,WUHU216HW,2013-02-18 18:13:00,
2013-02-18 11:18:00,69.8,20.5,27.41,West,270,0.0,3.1,16,0.00,,,0.00,WUHU216HW,2013-02-18 18:18:00,
2013-02-18 11:23:00,69.7,20.3,27.41,WSW,248,1.3,2.2,16,0.00,,,0.00,WUHU216HW,2013-02-18 18:23:00,
2013-02-18 11:28:00,70.9,21.4,27.41,South,180,0.7,3.6,16,0.00,,,0.00,WUHU216HW,2013-02-18 18:28:00,
2013-02-18 11:33:00,72.4,22.6,27.41,ESE,113,1.1,3.6,16,0.00,,,0.00,WUHU216HW,2013-02-18 18:33:00,
2013-02-18 11:38:00,72.7,21.2,27.41,SE,135,1.1,2.2,15,0.00,,,0.00,WUHU216HW,2013-02-18 18:38:00,
2013-02-18 11:43:00,71.6,20.3,27.40,South,180,3.1,3.1,15,0.00,,,0.00,WUHU216HW,2013-02-18 18:43:00,
2013-02-18 11:48:00,71.1,19.9,27.40,ESE,113,0.9,3.1,15,0.00,,,0.00,WUHU216HW,2013-02-18 18:48:00,
2013-02-18 11:53:00,71.3,20.1,27.40,ESE,113,1.6,3.1,15,0.00,,,0.00,WUHU216HW,2013-02-18 18:53:00,
2013-02-18 11:58:00,70.9,16.6,27.40,West,270,0.2,3.4,13,0.00,,,0.00,WUHU216HW,2013-02-18 18:58:00,
2013-02-18 12:03:00,70.9,19.8,27.40,ESE,113,0.4,3.4,15,0.00,,,0.00,WUHU216HW,2013-02-18 19:03:00,
2013-02-18 12:08:00,71.3,21.7,27.40,SSE,158,1.8,2.5,16,0.00,,,0.00,WUHU216HW,2013-02-18 19:08:00,
2013-02-18 12:13:00,72.0,20.6,27.39,WSW,248,1.6,2.5,15,0.00,,,0.00,WUHU216HW,2013-02-18 19:13:00,
2013-02-18 12:18:00,72.4,21.0,27.39,SE,135,1.3,2.5,15,0.00,,,0.00,WUHU216HW,2013-02-18 19:18:00,
2013-02-18 12:23:00,72.4,21.0,27.38,ENE,68,1.1,2.0,15,0.00,,,0.00,WUHU216HW,2013-02-18 19:23:00,
2013-02-18 12:28:00,72.0,19.0,27.38,SW,225,1.6,3.8,14,0.00,,,0.00,WUHU216HW,2013-02-18 19:28:00,
2013-02-18 12:33:00,71.3,20.1,27.37,NNE,23,1.3,3.8,15,0.00,,,0.00,WUHU216HW,2013-02-18 19:33:00,
2013-02-18 12:38:00,71.6,18.7,27.37,East,90,1.6,3.1,14,0.00,,,0.00,WUHU216HW,2013-02-18 19:38:00,
2013-02-18 12:43:00,71.8,17.3,27.37,ENE,68,0.7,3.1,13,0.00,,,0.00,WUHU216HW,2013-02-18 19:43:00,
2013-02-18 12:48:00,72.4,16.1,27.37,WNW,293,0.7,3.1,12,0.00,,,0.00,WUHU216HW,2013-02-18 19:48:00,
2013-02-18 12:53:00,71.6,15.5,27.36,NW,315,1.1,3.4,12,0.00,,,0.00,WUHU216HW,2013-02-18 19:53:00,
2013-02-18 12:58:00,71.3,16.8,27.36,West,270,2.5,3.4,13,0.00,,,0.00,WUHU216HW,2013-02-18 19:58:00,
2013-02-18 13:04:00,71.5,16.9,27.36,West,270,0.4,2.5,13,0.00,,,0.00,WUHU216HW,2013-02-18 20:04:00,
2013-02-18 13:09:00,72.0,17.4,27.35,ENE,68,2.7,2.7,13,0.00,,,0.00,WUHU216HW,2013-02-18 20:09:00,
2013-02-18 13:14:00,72.4,17.7,27.35,ENE,68,3.4,3.4,13,0.00,,,0.00,WUHU216HW,2013-02-18 20:14:00,
2013-02-18 13:19:00,72.4,17.7,27.35,East,90,1.8,4.0,13,0.00,,,0.00,WUHU216HW,2013-02-18 20:19:00,
2013-02-18 13:24:00,72.9,18.2,27.34,WNW,293,1.8,4.0,13,0.00,,,0.00,WUHU216HW,2013-02-18 20:24:00,
2013-02-18 13:29:00,73.1,16.7,27.34,SSW,203,1.3,2.7,12,0.00,,,0.00,WUHU216HW,2013-02-18 20:29:00,
2013-02-18 13:34:00,73.1,18.3,27.34,ENE,68,0.4,2.7,13,0.00,,,0.00,WUHU216HW,2013-02-18 20:34:00,
2013-02-18 13:39:00,73.6,18.7,27.34,SE,135,0.2,1.8,13,0.00,,,0.00,WUHU216HW,2013-02-18 20:39:00,
2013-02-18 13:44:00,74.3,19.3,27.33,East,90,1.8,2.5,13,0.00,,,0.00,WUHU216HW,2013-02-18 20:44:00,
2013-02-18 13:49:00,74.5,17.7,27.33,WSW,248,1.3,2.5,12,0.00,,,0.00,WUHU216HW,2013-02-18 20:49:00,
2013-02-18 13:54:00,74.7,19.5,27.32,NW,315,1.3,2.5,13,0.00,,,0.00,WUHU216HW,2013-02-18 20:54:00,
2013-02-18 13:59:00,74.5,16.1,27.32,North,0,2.0,3.4,11,0.00,,,0.00,WUHU216HW,2013-02-18 20:59:00,
2013-02-18 14:04:00,73.4,16.9,27.32,WSW,248,1.8,3.4,12,0.00,,,0.00,WUHU216HW,2013-02-18 21:04:00,
2013-02-18 14:09:00,72.7,16.4,27.32,ENE,68,1.8,2.5,12,0.00,,,0.00,WUHU216HW,2013-02-18 21:09:00,
2013-02-18 14:14:00,73.3,18.5,27.31,ENE,68,3.1,3.1,13,0.00,,,0.00,WUHU216HW,2013-02-18 21:14:00,
2013-02-18 14:19:00,74.3,19.3,27.32,East,90,1.8,3.1,13,0.00,,,0.00,WUHU216HW,2013-02-18 21:19:00,
2013-02-18 14:24:00,74.3,17.7,27.32,NW,315,0.0,3.1,12,0.00,,,0.00,WUHU216HW,2013-02-18 21:24:00,
2013-02-18 14:29:00,73.8,18.9,27.31,ENE,68,1.1,2.5,13,0.00,,,0.00,WUHU216HW,2013-02-18 21:29:00,
2013-02-18 14:34:00,74.3,19.3,27.32,ESE,113,2.7,3.6,13,0.00,,,0.00,WUHU216HW,2013-02-18 21:34:00,
2013-02-18 14:39:00,74.0,17.4,27.32,ENE,68,2.5,4.3,12,0.00,,,0.00,WUHU216HW,2013-02-18 21:39:00,
2013-02-18 14:44:00,73.6,17.1,27.31,ESE,113,0.9,4.3,12,0.00,,,0.00,WUHU216HW,2013-02-18 21:44:00,
2013-02-18 14:49:00,73.4,16.9,27.31,SSE,158,1.1,4.3,12,0.00,,,0.00,WUHU216HW,2013-02-18 21:49:00,
2013-02-18 14:54:00,73.3,16.8,27.31,South,180,0.4,2.7,12,0.00,,,0.00,WUHU216HW,2013-02-18 21:54:00,
2013-02-18 14:59:00,73.4,16.9,27.30,ESE,113,1.1,2.7,12,0.00,,,0.00,WUHU216HW,2013-02-18 21:59:00,
2013-02-18 15:04:00,73.3,16.8,27.30,ENE,68,1.6,2.7,12,0.00,,,0.00,WUHU216HW,2013-02-18 22:04:00,
2013-02-18 15:09:00,73.1,16.7,27.30,ESE,113,0.4,3.4,12,0.00,,,0.00,WUHU216HW,2013-02-18 22:09:00,
2013-02-18 15:14:00,73.6,18.7,27.30,SE,135,1.8,3.4,13,0.00,,,0.00,WUHU216HW,2013-02-18 22:14:00,
2013-02-18 15:19:00,73.8,17.2,27.30,SE,135,0.9,1.8,12,0.00,,,0.00,WUHU216HW,2013-02-18 22:19:00,
2013-02-18 15:24:00,73.4,16.9,27.30,SE,135,1.1,1.8,12,0.00,,,0.00,WUHU216HW,2013-02-18 22:24:00,
2013-02-18 15:29:00,72.9,16.5,27.30,East,90,1.1,3.1,12,0.00,,,0.00,WUHU216HW,2013-02-18 22:29:00,
2013-02-18 15:34:00,73.4,18.6,27.30,ENE,68,1.8,3.6,13,0.00,,,0.00,WUHU216HW,2013-02-18 22:34:00,
2013-02-18 15:39:00,73.4,16.9,27.30,SE,135,1.8,4.0,12,0.00,,,0.00,WUHU216HW,2013-02-18 22:39:00,
2013-02-18 15:44:00,73.3,16.8,27.30,ENE,68,1.8,4.0,12,0.00,,,0.00,WUHU216HW,2013-02-18 22:44:00,
2013-02-18 15:49:00,73.4,18.6,27.30,ESE,113,1.3,4.0,13,0.00,,,0.00,WUHU216HW,2013-02-18 22:49:00,
2013-02-18 15:54:00,73.6,18.7,27.30,ESE,113,1.1,2.7,13,0.00,,,0.00,WUHU216HW,2013-02-18 22:54:00,
2013-02-18 15:59:00,73.1,16.7,27.30,ESE,113,0.2,2.2,12,0.00,,,0.00,WUHU216HW,2013-02-18 22:59:00,
2013-02-18 16:04:00,72.5,16.2,27.30,South,180,0.4,1.8,12,0.00,,,0.00,WUHU216HW,2013-02-18 23:04:00,
2013-02-18 16:09:00,72.4,17.7,27.30,East,90,3.1,3.1,13,0.00,,,0.00,WUHU216HW,2013-02-18 23:09:00,
2013-02-18 16:14:00,72.0,17.4,27.30,ESE,113,2.7,3.4,13,0.00,,,0.00,WUHU216HW,2013-02-18 23:14:00,
2013-02-18 16:19:00,71.8,17.3,27.30,SSE,158,1.8,3.4,13,0.00,,,0.00,WUHU216HW,2013-02-18 23:19:00,
2013-02-18 16:24:00,71.6,17.1,27.30,SSW,203,0.9,2.7,13,0.00,,,0.00,WUHU216HW,2013-02-18 23:24:00,
2013-02-18 16:29:00,71.6,17.1,27.29,ESE,113,1.3,2.5,13,0.00,,,0.00,WUHU216HW,2013-02-18 23:29:00,
2013-02-18 16:34:00,71.1,16.7,27.29,SSE,158,1.1,2.9,13,0.00,,,0.00,WUHU216HW,2013-02-18 23:34:00,
2013-02-18 16:39:00,70.9,16.6,27.29,ENE,68,1.1,2.9,13,0.00,,,0.00,WUHU216HW,2013-02-18 23:39:00,
2013-02-18 16:44:00,70.9,16.6,27.29,ESE,113,1.1,2.5,13,0.00,,,0.00,WUHU216HW,2013-02-18 23:44:00,
2013-02-18 16:49:00,71.1,16.7,27.29,West,270,1.1,1.3,13,0.00,,,0.00,WUHU216HW,2013-02-18 23:49:00,
2013-02-18 16:54:00,70.7,16.4,27.29,WNW,293,1.3,2.9,13,0.00,,,0.00,WUHU216HW,2013-02-18 23:54:00,
2013-02-18 16:59:00,70.2,17.6,27.29,WSW,248,2.7,3.1,14,0.00,,,0.00,WUHU216HW,2013-02-18 23:59:00,
2013-02-18 17:04:00,69.8,15.7,27.29,WSW,248,1.8,3.6,13,0.00,,,0.00,WUHU216HW,2013-02-19 00:04:00,
2013-02-18 17:09:00,69.5,18.6,27.29,WNW,293,1.1,3.6,15,0.00,,,0.00,WUHU216HW,2013-02-19 00:09:00,
2013-02-18 17:14:00,69.3,18.5,27.29,WNW,293,1.8,2.7,15,0.00,,,0.00,WUHU216HW,2013-02-19 00:14:00,
2013-02-18 17:19:00,69.1,18.4,27.29,West,270,0.7,2.5,15,0.00,,,0.00,WUHU216HW,2013-02-19 00:19:00,
2013-02-18 17:24:00,68.9,18.3,27.28,West,270,1.8,2.5,15,0.00,,,0.00,WUHU216HW,2013-02-19 00:24:00,
2013-02-18 17:29:00,68.6,17.9,27.29,NW,315,1.1,2.2,15,0.00,,,0.00,WUHU216HW,2013-02-19 00:29:00,
2013-02-18 17:34:00,68.2,17.7,27.29,North,0,0.2,1.8,15,0.00,,,0.00,WUHU216HW,2013-02-19 00:34:00,
2013-02-18 17:39:00,67.9,17.4,27.29,WNW,293,0.7,1.8,15,0.00,,,0.00,WUHU216HW,2013-02-19 00:39:00,
2013-02-18 17:44:00,67.7,18.8,27.29,NW,315,0.9,1.1,16,0.00,,,0.00,WUHU216HW,2013-02-19 00:44:00,
2013-02-18 17:49:00,67.7,18.8,27.29,WNW,293,0.7,1.1,16,0.00,,,0.00,WUHU216HW,2013-02-19 00:49:00,
2013-02-18 17:54:00,67.9,19.0,27.29,NW,315,1.1,1.1,16,0.00,,,0.00,WUHU216HW,2013-02-19 00:54:00,
2013-02-18 17:59:00,67.9,19.0,27.28,NW,315,0.4,1.1,16,0.00,,,0.00,WUHU216HW,2013-02-19 00:59:00,
2013-02-18 18:04:00,67.9,19.0,27.29,NW,315,0.0,1.1,16,0.00,,,0.00,WUHU216HW,2013-02-19 01:04:00,
2013-02-18 18:09:00,67.5,18.7,27.29,WNW,293,0.0,0.4,16,0.00,,,0.00,WUHU216HW,2013-02-19 01:09:00,
2013-02-18 18:14:00,67.0,19.8,27.29,WNW,293,0.0,0.4,17,0.00,,,0.00,WUHU216HW,2013-02-19 01:14:00,
2013-02-18 18:19:00,66.6,19.5,27.29,WNW,293,0.0,0.0,17,0.00,,,0.00,WUHU216HW,2013-02-19 01:19:00,
2013-02-18 18:24:00,65.9,18.9,27.29,WNW,293,0.0,0.0,17,0.00,,,0.00,WUHU216HW,2013-02-19 01:24:00,
2013-02-18 18:29:00,65.5,20.2,27.29,WNW,293,0.0,0.0,18,0.00,,,0.00,WUHU216HW,2013-02-19 01:29:00,
2013-02-18 18:34:00,64.8,19.6,27.29,West,270,0.4,1.1,18,0.00,,,0.00,WUHU216HW,2013-02-19 01:34:00,
2013-02-18 18:39:00,64.4,19.4,27.30,WNW,293,0.2,1.1,18,0.00,,,0.00,WUHU216HW,2013-02-19 01:39:00,
2013-02-18 18:44:00,63.9,18.9,27.30,NW,315,0.0,0.4,18,0.00,,,0.00,WUHU216HW,2013-02-19 01:44:00,
2013-02-18 18:49:00,63.5,20.2,27.30,NW,315,0.0,0.4,19,0.00,,,0.00,WUHU216HW,2013-02-19 01:49:00,
2013-02-18 18:55:00,63.0,19.8,27.30,NW,315,0.0,0.0,19,0.00,,,0.00,WUHU216HW,2013-02-19 01:55:00,
2013-02-18 19:00:00,62.5,19.4,27.29,NNW,338,0.0,0.0,19,0.00,,,0.00,WUHU216HW,2013-02-19 02:00:00,
2013-02-18 19:05:00,62.1,19.1,27.29,ENE,68,0.4,0.4,19,0.00,,,0.00,WUHU216HW,2013-02-19 02:05:00,
2013-02-18 19:10:00,61.6,21.2,27.29,ENE,68,0.0,0.7,21,0.00,,,0.00,WUHU216HW,2013-02-19 02:10:00,
2013-02-18 19:15:00,61.2,20.9,27.29,ENE,68,0.0,0.7,21,0.00,,,0.00,WUHU216HW,2013-02-19 02:15:00,
2013-02-18 19:20:00,60.8,20.6,27.29,ENE,68,0.0,0.0,21,0.00,,,0.00,WUHU216HW,2013-02-19 02:20:00,
2013-02-18 19:25:00,60.3,20.1,27.29,ENE,68,0.0,0.0,21,0.00,,,0.00,WUHU216HW,2013-02-19 02:25:00,
2013-02-18 19:30:00,59.9,19.8,27.29,ENE,68,0.0,0.0,21,0.00,,,0.00,WUHU216HW,2013-02-19 02:30:00,
2013-02-18 19:35:00,59.6,19.4,27.29,ESE,113,0.0,1.1,21,0.00,,,0.00,WUHU216HW,2013-02-19 02:35:00,
2013-02-18 19:40:00,59.4,19.3,27.29,East,90,0.0,1.1,21,0.00,,,0.00,WUHU216HW,2013-02-19 02:40:00,
2013-02-18 19:45:00,59.0,20.0,27.29,West,270,0.7,0.7,22,0.00,,,0.00,WUHU216HW,2013-02-19 02:45:00,
2013-02-18 19:50:00,58.7,20.6,27.29,NNW,338,0.7,1.6,23,0.00,,,0.00,WUHU216HW,2013-02-19 02:50:00,
2013-02-18 19:55:00,58.5,19.5,27.29,North,0,0.4,1.6,22,0.00,,,0.00,WUHU216HW,2013-02-19 02:55:00,
2013-02-18 20:00:00,58.3,19.4,27.29,North,0,0.4,0.9,22,0.00,,,0.00,WUHU216HW,2013-02-19 03:00:00,
2013-02-18 20:05:00,58.0,19.1,27.29,NE,45,0.0,0.7,22,0.00,,,0.00,WUHU216HW,2013-02-19 03:05:00,
2013-02-18 20:10:00,58.0,19.1,27.29,East,90,1.1,1.1,22,0.00,,,0.00,WUHU216HW,2013-02-19 03:10:00,
2013-02-18 20:15:00,57.8,19.9,27.29,ESE,113,0.0,1.3,23,0.00,,,0.00,WUHU216HW,2013-02-19 03:15:00,
2013-02-18 20:20:00,57.6,20.7,27.30,WSW,248,0.4,1.8,24,0.00,,,0.00,WUHU216HW,2013-02-19 03:20:00,
2013-02-18 20:25:00,57.2,19.5,27.30,WSW,248,0.0,1.8,23,0.00,,,0.00,WUHU216HW,2013-02-19 03:25:00,
2013-02-18 20:30:00,57.1,19.3,27.30,SE,135,1.1,1.1,23,0.00,,,0.00,WUHU216HW,2013-02-19 03:30:00,
2013-02-18 20:35:00,57.2,19.5,27.30,ESE,113,0.0,1.3,23,0.00,,,0.00,WUHU216HW,2013-02-19 03:35:00,
2013-02-18 20:40:00,57.1,20.3,27.30,SE,135,0.4,1.3,24,0.00,,,0.00,WUHU216HW,2013-02-19 03:40:00,
2013-02-18 20:45:00,56.9,20.1,27.30,ESE,113,0.0,0.7,24,0.00,,,0.00,WUHU216HW,2013-02-19 03:45:00,
2013-02-18 20:50:00,56.5,18.8,27.30,ESE,113,0.4,0.7,23,0.00,,,0.00,WUHU216HW,2013-02-19 03:50:00,
2013-02-18 20:55:00,56.5,18.8,27.30,ESE,113,1.1,1.1,23,0.00,,,0.00,WUHU216HW,2013-02-19 03:55:00,
2013-02-18 21:00:00,56.3,19.6,27.30,ESE,113,0.2,1.6,24,0.00,,,0.00,WUHU216HW,2013-02-19 04:00:00,
2013-02-18 21:05:00,56.2,19.4,27.30,ESE,113,0.4,1.6,24,0.00,,,0.00,WUHU216HW,2013-02-19 04:05:00,
2013-02-18 21:10:00,55.8,19.2,27.30,East,90,0.7,1.6,24,0.00,,,0.00,WUHU216HW,2013-02-19 04:10:00,
2013-02-18 21:15:00,55.3,19.6,27.30,East,90,1.6,1.6,25,0.00,,,0.00,WUHU216HW,2013-02-19 04:15:00,
2013-02-18 21:20:00,54.9,20.3,27.30,SE,135,0.9,1.8,26,0.00,,,0.00,WUHU216HW,2013-02-19 04:20:00,
2013-02-18 21:25:00,54.4,20.8,27.30,SE,135,0.9,2.0,27,0.00,,,0.00,WUHU216HW,2013-02-19 04:25:00,
2013-02-18 21:30:00,54.0,20.5,27.30,SE,135,0.4,2.0,27,0.00,,,0.00,WUHU216HW,2013-02-19 04:30:00,
2013-02-18 21:35:00,53.8,21.2,27.30,ESE,113,1.6,1.6,28,0.00,,,0.00,WUHU216HW,2013-02-19 04:35:00,
2013-02-18 21:40:00,53.6,21.2,27.31,SE,135,0.7,1.6,28,0.00,,,0.00,WUHU216HW,2013-02-19 04:40:00,
2013-02-18 21:45:00,53.6,21.2,27.31,ESE,113,1.1,2.0,28,0.00,,,0.00,WUHU216HW,2013-02-19 04:45:00,
2013-02-18 21:50:00,53.5,21.0,27.31,ESE,113,1.1,2.0,28,0.00,,,0.00,WUHU216HW,2013-02-19 04:50:00,
2013-02-18 21:55:00,53.3,19.9,27.31,ESE,113,1.1,1.8,27,0.00,,,0.00,WUHU216HW,2013-02-19 04:55:00,
2013-02-18 22:00:00,53.3,19.9,27.31,SE,135,0.9,2.2,27,0.00,,,0.00,WUHU216HW,2013-02-19 05:00:00,
2013-02-18 22:05:00,53.3,20.8,27.31,SE,135,0.7,2.9,28,0.00,,,0.00,WUHU216HW,2013-02-19 05:05:00,
2013-02-18 22:10:00,52.9,20.5,27.31,ESE,113,1.1,2.9,28,0.00,,,0.00,WUHU216HW,2013-02-19 05:10:00,
2013-02-18 22:15:00,52.7,20.3,27.31,ESE,113,2.5,2.5,28,0.00,,,0.00,WUHU216HW,2013-02-19 05:15:00,
2013-02-18 22:20:00,52.6,20.2,27.31,ESE,113,1.3,2.5,28,0.00,,,0.00,WUHU216HW,2013-02-19 05:20:00,
2013-02-18 22:25:00,52.2,20.8,27.31,SE,135,2.0,2.5,29,0.00,,,0.00,WUHU216HW,2013-02-19 05:25:00,
2013-02-18 22:33:00,52.0,20.6,27.31,ESE,113,0.4,2.7,29,0.00,,,0.00,WUHU216HW,2013-02-19 05:33:00,
2013-02-18 22:38:00,51.8,20.5,27.30,ESE,113,0.7,2.2,29,0.00,,,0.00,WUHU216HW,2013-02-19 05:38:00,
2013-02-18 22:43:00,51.7,20.4,27.30,East,90,0.4,2.2,29,0.00,,,0.00,WUHU216HW,2013-02-19 05:43:00,
2013-02-18 22:48:00,51.7,19.4,27.30,ESE,113,1.6,2.7,28,0.00,,,0.00,WUHU216HW,2013-02-19 05:48:00,
2013-02-18 22:53:00,51.5,20.2,27.30,ENE,68,1.1,3.4,29,0.00,,,0.00,WUHU216HW,2013-02-19 05:53:00,
2013-02-18 22:58:00,51.5,20.2,27.30,SE,135,1.3,3.4,29,0.00,,,0.00,WUHU216HW,2013-02-19 05:58:00,